This is the latest recevied weather packets stored in our database for station/object Kozakov. If no packets are shown the sender has not sent any weather packets the latest 1 day(s).
| Time | Temp. | Humidity | Pressure | Rain* | Wind** | Luminosity | Snow |
|---|---|---|---|---|---|---|---|
| 1836274691 | 16.11° C | 100% | - | - | 7.15 m/s, 104° | - | - |
| 1836274534 | 17.22° C | 93% | - | - | 7.15 m/s, 113° | - | - |
| 1836274390 | 16.11° C | 100% | - | - | 5.81 m/s, 103° | - | - |
| 1836274241 | 16.11° C | 98% | - | - | 5.81 m/s, 111° | - | - |
| 1836274091 | 16.11° C | 100% | - | - | 5.81 m/s, 108° | - | - |
| 1778032225 | 10° C | 100% | - | - | 4.92 m/s, 233° | - | - |
| 1778031918 | 10° C | 100% | - | - | 4.02 m/s, 236° | - | - |
| 1778031617 | 10° C | 100% | - | - | 5.81 m/s, 254° | - | - |
| 1778031318 | 11.11° C | 100% | - | - | 4.02 m/s, 240° | - | - |
| 1778031018 | 11.11° C | 100% | - | - | 3.13 m/s, 259° | - | - |
| 1778030716 | 10° C | 100% | - | - | 1.79 m/s, 291° | - | - |
| 1778030417 | 8.89° C | 100% | - | - | 0.89 m/s, 286° | - | - |
| 1778029817 | 7.78° C | 100% | - | - | 0.89 m/s, 39° | - | - |
| 1778029517 | 7.78° C | 100% | - | - | 1.79 m/s, 39° | - | - |
| 1778029217 | 7.78° C | 100% | - | - | 1.79 m/s, 43° | - | - |
| 1778028917 | 7.78° C | 100% | - | - | 3.13 m/s, 34° | - | - |
| 1778028617 | 7.78° C | 100% | - | - | 1.79 m/s, 27° | - | - |
| 1778028318 | 7.78° C | 100% | - | - | 1.79 m/s, 16° | - | - |
| 1778028017 | 7.78° C | 100% | - | - | 0 m/s | - | - |
| 1778027717 | 8.89° C | 100% | - | - | 0 m/s | - | - |
| 1778027418 | 7.78° C | 100% | - | - | 0 m/s | - | - |
| 1778027116 | 8.89° C | 100% | - | - | 0 m/s | - | - |
| 1778026819 | 8.89° C | 100% | - | - | 0.89 m/s, 348° | - | - |
| 1778026517 | 7.78° C | 100% | - | - | 3.13 m/s, 324° | - | - |
| 1778026218 | 7.78° C | 100% | - | - | 4.02 m/s, 332° | - | - |
* Rain since midnight (hover to see other rain measurements)
** Current wind speed in m/s (hover to see current wind gust speed)